Wetterdaten: Sonntag, 06.11.2016
Datum Zeit Temp. A. Aussentemp2 Feuchte A. Luftdruck Regen Wind Richtung Richtung Sonnenschein Helligkeit Solar
06.11.2016 00:04 6,5 C 6,5 C 84 % 998,8 hPa 0,0 l/m 23,2 km/h (4 Bft) W-SW22.5 240 0 min 0 lux 0 W/m
06.11.2016 00:10 6,5 C 6,5 C 84 % 998,8 hPa 0,0 l/m 22,5 km/h (4 Bft) SW45 220 0 min 0 lux 0 W/m
06.11.2016 00:14 6,5 C 6,6 C 84 % 998,8 hPa 0,0 l/m 19,6 km/h (3 Bft) SW67.5 230 0 min 0 lux 0 W/m
06.11.2016 00:19 6,5 C 6,6 C 84 % 998,8 hPa 0,0 l/m 22,9 km/h (4 Bft) SW67.5 235 0 min 0 lux 0 W/m
06.11.2016 00:25 6,5 C 6,5 C 84 % 998,8 hPa 0,0 l/m 23,0 km/h (4 Bft) SW22.5 235 0 min 0 lux 0 W/m
06.11.2016 00:30 6,4 C 6,5 C 85 % 998,8 hPa 0,0 l/m 20,1 km/h (4 Bft) SW22.5 235 0 min 0 lux 0 W/m
06.11.2016 00:35 6,4 C 6,5 C 84 % 998,8 hPa 0,0 l/m 17,5 km/h (3 Bft) SW67.5 225 0 min 0 lux 0 W/m
06.11.2016 00:40 6,3 C 6,3 C 84 % 998,8 hPa 0,0 l/m 19,2 km/h (3 Bft) W-SW22.5 240 0 min 0 lux 0 W/m
06.11.2016 00:44 6,2 C 6,2 C 85 % 998,8 hPa 0,0 l/m 17,4 km/h (3 Bft) W-SW22.5 245 0 min 0 lux 0 W/m
06.11.2016 00:49 6,1 C 6,3 C 85 % 998,8 hPa 0,0 l/m 17,5 km/h (3 Bft) SW45 230 0 min 0 lux 0 W/m
06.11.2016 00:55 6,1 C 6,3 C 85 % 998,8 hPa 0,0 l/m 20,0 km/h (4 Bft) W-SW22.5 245 0 min 0 lux 0 W/m
06.11.2016 01:00 6,1 C 6,2 C 85 % 998,8 hPa 0,0 l/m 18,0 km/h (3 Bft) SW45 230 0 min 0 lux 0 W/m
06.11.2016 01:04 6,0 C 6,1 C 86 % 998,8 hPa 0,0 l/m 17,6 km/h (3 Bft) W-SW22.5 245 0 min 0 lux 0 W/m
06.11.2016 01:09 6,0 C 6,2 C 86 % 998,8 hPa 0,0 l/m 15,6 km/h (3 Bft) SW45 230 0 min 0 lux 0 W/m
06.11.2016 01:15 6,0 C 6,1 C 86 % 998,8 hPa 0,0 l/m 15,1 km/h (3 Bft) W-SW45 245 0 min 0 lux 0 W/m
06.11.2016 01:20 6,0 C 6,2 C 86 % 998,8 hPa 0,0 l/m 24,5 km/h (4 Bft) W-SW45 240 0 min 0 lux 0 W/m
06.11.2016 01:25 6,0 C 6,2 C 86 % 998,8 hPa 0,0 l/m 19,3 km/h (3 Bft) SW45 225 0 min 0 lux 0 W/m
06.11.2016 01:29 5,9 C 6,0 C 86 % 998,8 hPa 0,0 l/m 16,6 km/h (3 Bft) SW45 235 0 min 0 lux 0 W/m
06.11.2016 01:34 5,8 C 6,0 C 86 % 998,8 hPa 0,0 l/m 18,2 km/h (3 Bft) SW45 230 0 min 0 lux 0 W/m
06.11.2016 01:40 5,7 C 5,9 C 86 % 998,8 hPa 0,0 l/m 16,8 km/h (3 Bft) SW67.5 225 0 min 0 lux 0 W/m
06.11.2016 01:45 5,6 C 6,0 C 86 % 998,8 hPa 0,0 l/m 18,3 km/h (3 Bft) SW45 220 0 min 0 lux 0 W/m
06.11.2016 01:50 5,6 C 5,8 C 86 % 998,8 hPa 0,0 l/m 18,6 km/h (3 Bft) SW67.5 230 0 min 0 lux 0 W/m
06.11.2016 01:55 5,6 C 5,7 C 86 % 998,8 hPa 0,0 l/m 18,4 km/h (3 Bft) SW45 230 0 min 0 lux 0 W/m
06.11.2016 01:59 5,5 C 5,7 C 86 % 998,8 hPa 0,0 l/m 19,3 km/h (3 Bft) W-SW22.5 240 0 min 0 lux 0 W/m
06.11.2016 02:05 5,4 C 5,7 C 86 % 998,8 hPa 0,0 l/m 18,2 km/h (3 Bft) SW45 225 0 min 0 lux 0 W/m
06.11.2016 02:10 5,4 C 5,7 C 87 % 998,8 hPa 0,0 l/m 22,0 km/h (4 Bft) SW45 230 0 min 0 lux 0 W/m
06.11.2016 02:15 5,3 C 5,6 C 87 % 998,8 hPa 0,0 l/m 20,1 km/h (4 Bft) SW67.5 230 0 min 0 lux 0 W/m
06.11.2016 02:19 5,3 C 5,5 C 87 % 998,8 hPa 0,0 l/m 22,0 km/h (4 Bft) SW45 230 0 min 0 lux 0 W/m
06.11.2016 02:24 5,2 C 5,5 C 87 % 998,8 hPa 0,0 l/m 18,7 km/h (3 Bft) SW45 230 0 min 0 lux 0 W/m
06.11.2016 02:30 5,2 C 5,5 C 87 % 998,8 hPa 0,0 l/m 21,6 km/h (4 Bft) SW45 230 0 min 0 lux 0 W/m
06.11.2016 02:35 5,2 C 5,5 C 87 % 998,8 hPa 0,0 l/m 21,5 km/h (4 Bft) SW45 230 0 min 0 lux 0 W/m
06.11.2016 02:40 5,1 C 5,3 C 87 % 997,8 hPa 0,0 l/m 20,8 km/h (4 Bft) W-SW45 240 0 min 0 lux 0 W/m
06.11.2016 02:39 5,1 C 5,3 C 87 % 997,8 hPa 0,0 l/m 20,8 km/h (4 Bft) W-SW45 240 0 min 0 lux 0 W/m
06.11.2016 02:45 5,1 C 5,4 C 87 % 997,8 hPa 0,0 l/m 21,8 km/h (4 Bft) W-SW67.5 240 0 min 0 lux 0 W/m
06.11.2016 02:50 5,1 C 5,3 C 87 % 997,8 hPa 0,0 l/m 21,8 km/h (4 Bft) W-SW22.5 240 0 min 0 lux 0 W/m
06.11.2016 02:54 5,1 C 5,3 C 87 % 997,8 hPa 0,0 l/m 23,2 km/h (4 Bft) W-SW22.5 240 0 min 0 lux 0 W/m
06.11.2016 02:59 5,1 C 5,5 C 87 % 997,8 hPa 0,0 l/m 25,0 km/h (4 Bft) SW45 230 0 min 0 lux 0 W/m
06.11.2016 03:05 5,2 C 5,5 C 87 % 997,8 hPa 0,0 l/m 22,2 km/h (4 Bft) SW45 230 0 min 0 lux 0 W/m
06.11.2016 03:10 5,2 C 5,5 C 87 % 997,8 hPa 0,0 l/m 19,8 km/h (3 Bft) SW22.5 230 0 min 0 lux 0 W/m
06.11.2016 03:14 4,9 C 5,4 C 87 % 997,8 hPa 0,0 l/m 19,5 km/h (3 Bft) SW45 235 0 min 0 lux 0 W/m
06.11.2016 03:19 4,9 C 5,3 C 87 % 997,8 hPa 0,0 l/m 19,5 km/h (3 Bft) SW45 235 0 min 0 lux 0 W/m
06.11.2016 03:25 4,9 C 5,2 C 87 % 997,8 hPa 0,0 l/m 20,0 km/h (4 Bft) W-SW22.5 240 0 min 0 lux 0 W/m
06.11.2016 03:30 4,9 C 5,3 C 87 % 997,8 hPa 0,0 l/m 22,5 km/h (4 Bft) SW22.5 235 0 min 0 lux 0 W/m
06.11.2016 03:35 4,9 C 5,3 C 87 % 997,8 hPa 0,0 l/m 22,1 km/h (4 Bft) SW67.5 230 0 min 0 lux 0 W/m
06.11.2016 03:39 5,1 C 5,4 C 87 % 997,8 hPa 0,0 l/m 21,8 km/h (4 Bft) SW45 235 0 min 0 lux 0 W/m
06.11.2016 03:44 5,1 C 5,3 C 87 % 997,8 hPa 0,0 l/m 24,1 km/h (4 Bft) SW22.5 230 0 min 0 lux 0 W/m
06.11.2016 03:50 5,1 C 5,3 C 87 % 997,8 hPa 0,0 l/m 18,6 km/h (3 Bft) SW67.5 225 0 min 0 lux 0 W/m
06.11.2016 03:55 4,9 C 5,3 C 87 % 997,8 hPa 0,0 l/m 20,6 km/h (4 Bft) SW45 230 0 min 0 lux 0 W/m
06.11.2016 04:00 4,9 C 5,2 C 87 % 997,8 hPa 0,0 l/m 18,7 km/h (3 Bft) SW22.5 225 0 min 0 lux 0 W/m
06.11.2016 04:04 4,8 C 5,2 C 87 % 997,8 hPa 0,0 l/m 19,8 km/h (3 Bft) SW45 225 0 min 0 lux 0 W/m
06.11.2016 04:10 4,7 C 5,2 C 87 % 997,8 hPa 0,0 l/m 19,2 km/h (3 Bft) SW45 230 0 min 0 lux 0 W/m
06.11.2016 04:15 4,7 C 5,1 C 87 % 997,8 hPa 0,0 l/m 19,2 km/h (3 Bft) SW45 230 0 min 0 lux 0 W/m
06.11.2016 04:20 4,7 C 5,1 C 87 % 997,8 hPa 0,0 l/m 19,7 km/h (3 Bft) SW67.5 230 0 min 0 lux 0 W/m
06.11.2016 04:25 4,7 C 5,1 C 87 % 997,8 hPa 0,0 l/m 27,4 km/h (5 Bft) SW45 225 0 min 0 lux 0 W/m
06.11.2016 04:29 4,7 C 5,1 C 87 % 997,8 hPa 0,0 l/m 20,2 km/h (4 Bft) SW45 225 0 min 0 lux 0 W/m
06.11.2016 04:35 4,6 C 5,0 C 87 % 997,8 hPa 0,0 l/m 18,8 km/h (3 Bft) SW45 225 0 min 0 lux 0 W/m
06.11.2016 04:40 4,6 C 5,1 C 87 % 997,8 hPa 0,1 l/m 20,0 km/h (4 Bft) SW45 225 0 min 0 lux 0 W/m
06.11.2016 04:45 4,6 C 5,1 C 87 % 997,8 hPa 0,0 l/m 20,8 km/h (4 Bft) SW45 220 0 min 0 lux 0 W/m
06.11.2016 04:50 4,6 C 5,0 C 86 % 997,8 hPa 0,0 l/m 17,9 km/h (3 Bft) SW45 230 0 min 0 lux 0 W/m
06.11.2016 04:54 4,5 C 4,9 C 86 % 997,8 hPa 0,0 l/m 20,7 km/h (4 Bft) SW67.5 220 0 min 0 lux 0 W/m
06.11.2016 04:59 4,5 C 4,8 C 86 % 997,8 hPa 0,0 l/m 24,4 km/h (4 Bft) SW67.5 225 0 min 0 lux 0 W/m
06.11.2016 05:05 4,5 C 4,8 C 86 % 997,8 hPa 0,0 l/m 23,6 km/h (4 Bft) SW45 230 0 min 0 lux 0 W/m
06.11.2016 05:10 4,5 C 4,8 C 86 % 997,8 hPa 0,0 l/m 18,7 km/h (3 Bft) SW67.5 225 0 min 0 lux 0 W/m
06.11.2016 05:14 4,4 C 4,8 C 86 % 997,8 hPa 0,0 l/m 22,7 km/h (4 Bft) SW45 230 0 min 0 lux 0 W/m
06.11.2016 05:19 4,4 C 4,7 C 86 % 997,8 hPa 0,0 l/m 22,3 km/h (4 Bft) SW45 225 0 min 0 lux 0 W/m
06.11.2016 05:25 4,4 C 4,8 C 86 % 997,8 hPa 0,0 l/m 22,0 km/h (4 Bft) SW45 215 0 min 0 lux 0 W/m
06.11.2016 05:30 4,3 C 4,8 C 86 % 997,8 hPa 0,0 l/m 21,1 km/h (4 Bft) SW67.5 220 0 min 0 lux 0 W/m
06.11.2016 05:35 4,4 C 4,7 C 86 % 997,8 hPa 0,0 l/m 16,5 km/h (3 Bft) SW45 230 0 min 0 lux 0 W/m
06.11.2016 05:39 4,5 C 4,8 C 86 % 997,8 hPa 0,0 l/m 20,8 km/h (4 Bft) SW45 225 0 min 0 lux 0 W/m
06.11.2016 05:44 4,5 C 4,7 C 86 % 997,8 hPa 0,0 l/m 22,7 km/h (4 Bft) S-SW67.5 210 0 min 0 lux 0 W/m
06.11.2016 05:50 4,5 C 4,8 C 86 % 997,8 hPa 0,0 l/m 24,6 km/h (4 Bft) SW22.5 230 0 min 0 lux 0 W/m
06.11.2016 05:55 4,5 C 4,8 C 86 % 997,8 hPa 0,0 l/m 22,6 km/h (4 Bft) SW67.5 220 0 min 0 lux 0 W/m
06.11.2016 06:00 4,5 C 4,8 C 86 % 997,8 hPa 0,0 l/m 23,1 km/h (4 Bft) SW45 230 0 min 0 lux 0 W/m
06.11.2016 06:05 4,6 C 4,8 C 86 % 997,8 hPa 0,0 l/m 21,2 km/h (4 Bft) SW45 230 0 min 0 lux 0 W/m
06.11.2016 06:10 4,6 C 4,8 C 86 % 997,8 hPa 0,0 l/m 23,8 km/h (4 Bft) SW22.5 230 0 min 0 lux 0 W/m
06.11.2016 06:15 4,6 C 4,8 C 86 % 997,8 hPa 0,0 l/m 23,0 km/h (4 Bft) SW45 225 0 min 0 lux 0 W/m
06.11.2016 06:20 4,7 C 4,9 C 86 % 997,8 hPa 0,0 l/m 26,9 km/h (4 Bft) SW67.5 220 0 min 0 lux 0 W/m
06.11.2016 06:24 4,7 C 4,9 C 86 % 997,8 hPa 0,0 l/m 23,8 km/h (4 Bft) SW45 230 0 min 0 lux 0 W/m
06.11.2016 06:29 4,7 C 4,8 C 86 % 997,8 hPa 0,0 l/m 27,0 km/h (5 Bft) SW67.5 225 0 min 0 lux 0 W/m
06.11.2016 06:35 4,7 C 4,9 C 86 % 997,8 hPa 0,0 l/m 30,6 km/h (5 Bft) SW67.5 225 0 min 0 lux 0 W/m
06.11.2016 06:40 4,7 C 4,8 C 85 % 997,8 hPa 0,0 l/m 28,6 km/h (5 Bft) W-SW45 240 0 min 0 lux 0 W/m
06.11.2016 06:45 4,7 C 4,8 C 85 % 997,8 hPa 0,0 l/m 30,7 km/h (5 Bft) SW45 230 0 min 0 lux 0 W/m
06.11.2016 06:49 4,7 C 4,8 C 85 % 997,8 hPa 0,0 l/m 25,5 km/h (4 Bft) SW67.5 225 0 min 0 lux 0 W/m
06.11.2016 06:54 4,7 C 4,7 C 85 % 997,8 hPa 0,0 l/m 25,0 km/h (4 Bft) SW45 235 0 min 0 lux 0 W/m
06.11.2016 07:00 4,7 C 4,8 C 86 % 997,8 hPa 0,0 l/m 25,5 km/h (4 Bft) SW67.5 230 0 min 0 lux 0 W/m
06.11.2016 07:05 4,7 C 4,8 C 86 % 997,8 hPa 0,0 l/m 24,1 km/h (4 Bft) SW22.5 230 0 min 0 lux 0 W/m
06.11.2016 07:09 4,7 C 4,8 C 85 % 997,8 hPa 0,0 l/m 27,8 km/h (5 Bft) SW45 235 0 min 0 lux 0 W/m
06.11.2016 07:14 4,7 C 4,8 C 85 % 997,8 hPa 0,0 l/m 25,5 km/h (4 Bft) W-SW45 245 0 min 0 lux 0 W/m
06.11.2016 07:20 4,6 C 4,7 C 85 % 997,8 hPa 0,0 l/m 25,7 km/h (4 Bft) SW45 220 0 min 0 lux 0 W/m
06.11.2016 07:25 4,6 C 4,6 C 85 % 997,8 hPa 0,0 l/m 28,4 km/h (5 Bft) SW45 230 0 min 0 lux 0 W/m
06.11.2016 07:30 4,6 C 4,6 C 85 % 997,8 hPa 0,0 l/m 28,9 km/h (5 Bft) SW67.5 225 0 min 0 lux 0 W/m
06.11.2016 07:34 4,6 C 4,7 C 85 % 997,8 hPa 0,0 l/m 24,8 km/h (4 Bft) SW67.5 220 0 min 0 lux 0 W/m
06.11.2016 07:39 4,6 C 4,7 C 85 % 997,8 hPa 0,0 l/m 25,8 km/h (4 Bft) W-SW45 240 0 min 0 lux 0 W/m
06.11.2016 07:45 4,7 C 4,8 C 85 % 997,8 hPa 0,0 l/m 22,9 km/h (4 Bft) SW45 230 0 min 0 lux 0 W/m
06.11.2016 07:50 4,7 C 4,6 C 85 % 997,8 hPa 0,0 l/m 24,1 km/h (4 Bft) SW67.5 235 0 min 0 lux 0 W/m
06.11.2016 07:55 4,6 C 4,6 C 85 % 997,8 hPa 0,0 l/m 25,0 km/h (4 Bft) SW67.5 225 0 min 0 lux 0 W/m
06.11.2016 08:00 4,6 C 4,6 C 85 % 997,8 hPa 0,0 l/m 32,8 km/h (5 Bft) SW67.5 230 0 min 0 lux 0 W/m
06.11.2016 08:05 4,7 C 4,8 C 85 % 997,8 hPa 0,0 l/m 32,4 km/h (5 Bft) SW45 230 0 min 0 lux 0 W/m
06.11.2016 08:10 4,8 C 4,8 C 85 % 997,8 hPa 0,0 l/m 30,6 km/h (5 Bft) SW67.5 230 0 min 0 lux 0 W/m
06.11.2016 08:15 4,7 C 4,8 C 85 % 997,8 hPa 0,0 l/m 24,3 km/h (4 Bft) SW45 230 0 min 0 lux 0 W/m
06.11.2016 08:19 4,7 C 4,8 C 85 % 997,8 hPa 0,0 l/m 30,6 km/h (5 Bft) SW67.5 225 0 min 2,90 klux 20 W/m
06.11.2016 08:24 4,7 C 4,8 C 84 % 997,8 hPa 0,0 l/m 27,6 km/h (5 Bft) SW22.5 230 0 min 2,90 klux 20 W/m
06.11.2016 08:30 4,7 C 4,7 C 85 % 997,8 hPa 0,0 l/m 25,0 km/h (4 Bft) SW45 230 0 min 2,90 klux 20 W/m
06.11.2016 08:35 4,8 C 4,8 C 84 % 997,8 hPa 0,0 l/m 29,8 km/h (5 Bft) SW22.5 230 0 min 2,90 klux 20 W/m
06.11.2016 08:40 4,8 C 4,8 C 84 % 997,8 hPa 0,0 l/m 25,8 km/h (4 Bft) W-SW45 240 0 min 2,90 klux 20 W/m
06.11.2016 08:44 4,9 C 4,9 C 84 % 997,8 hPa 0,0 l/m 25,0 km/h (4 Bft) SW45 230 0 min 2,90 klux 20 W/m
06.11.2016 08:49 4,9 C 4,9 C 84 % 997,8 hPa 0,0 l/m 29,5 km/h (5 Bft) SW67.5 225 0 min 2,90 klux 20 W/m
06.11.2016 08:55 4,9 C 4,9 C 84 % 997,8 hPa 0,0 l/m 28,6 km/h (5 Bft) SW67.5 230 0 min 2,90 klux 20 W/m
06.11.2016 09:00 5,2 C 5,0 C 85 % 997,8 hPa 0,0 l/m 22,0 km/h (4 Bft) SW67.5 230 0 min 2,90 klux 20 W/m
06.11.2016 09:04 5,4 C 5,2 C 84 % 997,8 hPa 0,0 l/m 30,4 km/h (5 Bft) SW45 235 0 min 2,90 klux 20 W/m
06.11.2016 09:09 5,5 C 5,2 C 84 % 997,8 hPa 0,0 l/m 27,2 km/h (5 Bft) W-SW67.5 240 0 min 2,90 klux 20 W/m
06.11.2016 09:15 5,8 C 5,4 C 84 % 997,8 hPa 0,0 l/m 27,8 km/h (5 Bft) W-SW45 240 0 min 2,90 klux 20 W/m
06.11.2016 09:20 5,8 C 5,4 C 83 % 997,8 hPa 0,0 l/m 29,3 km/h (5 Bft) SW67.5 220 0 min 2,90 klux 20 W/m
06.11.2016 09:25 6,0 C 5,4 C 83 % 997,8 hPa 0,0 l/m 27,3 km/h (5 Bft) SW45 225 5 min 24,8 klux 170 W/m
06.11.2016 09:29 6,1 C 5,4 C 82 % 997,8 hPa 0,0 l/m 29,8 km/h (5 Bft) SW67.5 230 4 min 24,8 klux 170 W/m
06.11.2016 09:34 6,0 C 5,6 C 82 % 997,8 hPa 0,0 l/m 34,2 km/h (5 Bft) SW67.5 225 5 min 24,8 klux 170 W/m
06.11.2016 09:40 6,0 C 5,6 C 82 % 997,8 hPa 0,0 l/m 27,6 km/h (5 Bft) W-SW45 240 6 min 24,8 klux 170 W/m
06.11.2016 09:45 6,0 C 5,6 C 82 % 997,8 hPa 0,0 l/m 29,4 km/h (5 Bft) SW45 235 5 min 24,8 klux 170 W/m
06.11.2016 09:50 6,0 C 5,6 C 82 % 997,8 hPa 0,0 l/m 29,6 km/h (5 Bft) SW45 230 5 min 24,8 klux 170 W/m
06.11.2016 09:55 6,0 C 5,6 C 82 % 997,8 hPa 0,0 l/m 29,5 km/h (5 Bft) SW45 225 5 min 24,8 klux 170 W/m
06.11.2016 09:59 6,0 C 5,6 C 82 % 997,8 hPa 0,0 l/m 31,7 km/h (5 Bft) SW67.5 230 4 min 24,8 klux 170 W/m
06.11.2016 10:05 6,1 C 5,7 C 82 % 997,8 hPa 0,0 l/m 22,4 km/h (4 Bft) SW45 235 6 min 24,8 klux 170 W/m
06.11.2016 10:10 6,0 C 5,6 C 82 % 997,8 hPa 0,0 l/m 32,4 km/h (5 Bft) W-SW45 240 5 min 24,8 klux 170 W/m
06.11.2016 10:14 6,0 C 5,5 C 82 % 997,8 hPa 0,0 l/m 27,8 km/h (5 Bft) SW67.5 225 4 min 24,8 klux 170 W/m
06.11.2016 10:19 5,9 C 5,5 C 81 % 997,8 hPa 0,0 l/m 35,0 km/h (5 Bft) W-SW45 245 5 min 24,8 klux 170 W/m
06.11.2016 10:25 6,2 C 5,8 C 82 % 997,8 hPa 0,0 l/m 32,1 km/h (5 Bft) W-SW22.5 245 6 min 24,8 klux 170 W/m
06.11.2016 10:30 6,3 C 5,8 C 82 % 997,8 hPa 0,0 l/m 33,1 km/h (5 Bft) SW67.5 235 5 min 24,8 klux 170 W/m
06.11.2016 10:35 6,4 C 5,9 C 81 % 997,8 hPa 0,0 l/m 35,6 km/h (5 Bft) SW67.5 230 5 min 25,6 klux 175 W/m
06.11.2016 10:40 6,5 C 5,9 C 80 % 997,8 hPa 0,0 l/m 33,6 km/h (5 Bft) W-SW22.5 240 0 min 25,6 klux 175 W/m
06.11.2016 10:44 6,8 C 6,1 C 81 % 997,8 hPa 0,0 l/m 37,7 km/h (5 Bft) W-SW67.5 240 0 min 25,6 klux 175 W/m
06.11.2016 10:49 6,9 C 6,1 C 80 % 997,8 hPa 0,0 l/m 27,6 km/h (5 Bft) SW45 235 0 min 25,6 klux 175 W/m
06.11.2016 10:55 6,9 C 6,2 C 80 % 997,8 hPa 0,0 l/m 36,7 km/h (5 Bft) W-SW45 240 0 min 25,6 klux 175 W/m
06.11.2016 11:00 7,0 C 6,2 C 80 % 997,8 hPa 0,0 l/m 40,7 km/h (6 Bft) SW67.5 235 0 min 25,6 klux 175 W/m
06.11.2016 11:04 6,9 C 6,2 C 80 % 997,8 hPa 0,0 l/m 37,3 km/h (5 Bft) W-SW45 245 4 min 30,8 klux 211 W/m
06.11.2016 11:10 7,0 C 6,3 C 79 % 997,8 hPa 0,0 l/m 39,1 km/h (6 Bft) W-SW45 250 6 min 43,3 klux 296 W/m
06.11.2016 11:15 7,3 C 6,5 C 80 % 997,8 hPa 0,0 l/m 39,3 km/h (6 Bft) W-SW67.5 240 5 min 47,7 klux 326 W/m
06.11.2016 11:20 7,3 C 6,5 C 80 % 997,8 hPa 0,0 l/m 32,8 km/h (5 Bft) W-SW67.5 255 5 min 28,7 klux 196 W/m
06.11.2016 11:25 7,3 C 6,4 C 78 % 997,8 hPa 0,0 l/m 38,3 km/h (6 Bft) SW45 230 0 min 22,8 klux 156 W/m
06.11.2016 11:29 7,1 C 6,4 C 78 % 997,8 hPa 0,0 l/m 37,4 km/h (5 Bft) W-SW45 240 0 min 22,8 klux 156 W/m
06.11.2016 11:34 6,9 C 6,3 C 79 % 997,8 hPa 0,0 l/m 36,3 km/h (5 Bft) W-SW45 240 0 min 22,8 klux 156 W/m
06.11.2016 11:40 6,9 C 6,3 C 80 % 997,8 hPa 0,0 l/m 33,7 km/h (5 Bft) W-SW45 245 0 min 22,8 klux 156 W/m
06.11.2016 11:45 6,9 C 6,3 C 80 % 997,8 hPa 0,0 l/m 32,7 km/h (5 Bft) SW45 235 0 min 22,8 klux 156 W/m
06.11.2016 11:50 6,9 C 6,3 C 80 % 997,8 hPa 0,0 l/m 32,8 km/h (5 Bft) W-SW45 245 0 min 22,8 klux 156 W/m
06.11.2016 11:54 6,8 C 6,3 C 80 % 997,8 hPa 0,0 l/m 31,9 km/h (5 Bft) SW67.5 225 0 min 22,8 klux 156 W/m
06.11.2016 11:59 6,9 C 6,4 C 80 % 997,8 hPa 0,0 l/m 30,3 km/h (5 Bft) SW45 235 0 min 22,8 klux 156 W/m
06.11.2016 12:05 7,0 C 6,4 C 80 % 997,8 hPa 0,0 l/m 25,1 km/h (4 Bft) SW45 235 0 min 13,5 klux 92 W/m
06.11.2016 12:09 7,2 C 6,5 C 80 % 997,8 hPa 0,0 l/m 29,6 km/h (5 Bft) SW67.5 225 0 min 13,5 klux 92 W/m
06.11.2016 12:14 7,2 C 6,6 C 80 % 997,8 hPa 0,0 l/m 26,3 km/h (4 Bft) W-SW67.5 240 0 min 13,5 klux 92 W/m
06.11.2016 12:20 7,2 C 6,6 C 79 % 997,8 hPa 0,0 l/m 27,0 km/h (5 Bft) SW45 225 0 min 13,5 klux 92 W/m
06.11.2016 12:25 7,3 C 6,6 C 79 % 997,8 hPa 0,0 l/m 26,9 km/h (4 Bft) SW45 235 0 min 13,5 klux 92 W/m
06.11.2016 12:30 7,3 C 6,6 C 79 % 997,8 hPa 0,0 l/m 29,3 km/h (5 Bft) W-SW67.5 240 0 min 13,5 klux 92 W/m
06.11.2016 12:35 7,3 C 6,7 C 79 % 997,8 hPa 0,0 l/m 27,1 km/h (5 Bft) W-SW45 240 0 min 13,5 klux 92 W/m
06.11.2016 12:39 7,3 C 6,7 C 79 % 997,8 hPa 0,0 l/m 31,1 km/h (5 Bft) SW45 230 0 min 13,5 klux 92 W/m
06.11.2016 12:44 7,4 C 6,7 C 79 % 997,8 hPa 0,0 l/m 27,5 km/h (5 Bft) SW45 235 0 min 13,5 klux 92 W/m
06.11.2016 12:50 7,4 C 6,9 C 79 % 997,8 hPa 0,0 l/m 31,9 km/h (5 Bft) SW45 225 0 min 13,5 klux 92 W/m
06.11.2016 12:55 7,4 C 6,8 C 78 % 997,8 hPa 0,0 l/m 33,3 km/h (5 Bft) SW22.5 230 0 min 12,6 klux 86 W/m
06.11.2016 13:00 7,4 C 6,8 C 78 % 997,8 hPa 0,0 l/m 27,1 km/h (5 Bft) SW67.5 225 0 min 7,17 klux 49 W/m
06.11.2016 13:05 7,4 C 6,7 C 78 % 997,8 hPa 0,0 l/m 28,0 km/h (5 Bft) SW45 225 0 min 7,17 klux 49 W/m
06.11.2016 13:10 7,4 C 6,7 C 78 % 997,8 hPa 0,0 l/m 31,1 km/h (5 Bft) W-SW45 240 0 min 7,17 klux 49 W/m
06.11.2016 13:15 7,4 C 6,7 C 78 % 997,8 hPa 0,0 l/m 30,8 km/h (5 Bft) SW45 230 0 min 7,17 klux 49 W/m
06.11.2016 13:20 7,2 C 6,7 C 77 % 997,8 hPa 0,0 l/m 29,1 km/h (5 Bft) SW45 235 0 min 7,17 klux 49 W/m
06.11.2016 13:24 7,2 C 6,8 C 78 % 997,8 hPa 0,0 l/m 29,6 km/h (5 Bft) SW67.5 225 0 min 3,04 klux 21 W/m
06.11.2016 13:29 7,2 C 6,8 C 78 % 997,8 hPa 0,0 l/m 33,0 km/h (5 Bft) SW67.5 230 0 min 3,04 klux 21 W/m
06.11.2016 13:35 7,3 C 6,8 C 78 % 997,8 hPa 0,0 l/m 27,3 km/h (5 Bft) SW45 230 0 min 3,04 klux 21 W/m
06.11.2016 13:40 7,3 C 6,8 C 78 % 997,8 hPa 0,0 l/m 26,7 km/h (4 Bft) SW45 225 0 min 3,04 klux 21 W/m
06.11.2016 13:45 7,3 C 6,8 C 78 % 997,8 hPa 0,0 l/m 22,6 km/h (4 Bft) SW45 225 0 min 3,04 klux 21 W/m
06.11.2016 13:49 7,2 C 6,8 C 78 % 997,8 hPa 0,0 l/m 33,6 km/h (5 Bft) SW45 230 0 min 3,04 klux 21 W/m
06.11.2016 13:54 7,3 C 6,8 C 78 % 997,8 hPa 0,0 l/m 30,9 km/h (5 Bft) SW45 230 0 min 3,04 klux 21 W/m
06.11.2016 14:00 7,3 C 6,9 C 78 % 997,8 hPa 0,0 l/m 26,5 km/h (4 Bft) SW45 230 0 min 4,38 klux 30 W/m
06.11.2016 14:05 7,3 C 6,9 C 77 % 997,8 hPa 0,0 l/m 32,1 km/h (5 Bft) SW45 225 0 min 4,38 klux 30 W/m
06.11.2016 14:09 7,2 C 6,9 C 77 % 997,8 hPa 0,0 l/m 30,9 km/h (5 Bft) SW45 230 0 min 4,38 klux 30 W/m
06.11.2016 14:14 7,2 C 6,9 C 77 % 997,8 hPa 0,0 l/m 35,2 km/h (5 Bft) SW67.5 235 0 min 4,38 klux 30 W/m
06.11.2016 14:20 7,3 C 6,9 C 77 % 997,8 hPa 0,0 l/m 36,4 km/h (5 Bft) SW67.5 230 0 min 2,49 klux 17 W/m
06.11.2016 14:25 7,3 C 6,9 C 77 % 996,8 hPa 0,0 l/m 30,0 km/h (5 Bft) SW45 230 0 min 2,49 klux 17 W/m
06.11.2016 14:30 7,3 C 6,9 C 77 % 996,8 hPa 0,0 l/m 33,9 km/h (5 Bft) SW22.5 235 0 min 2,49 klux 17 W/m
06.11.2016 14:34 7,3 C 6,9 C 77 % 996,8 hPa 0,0 l/m 29,4 km/h (5 Bft) SW45 230 0 min 2,49 klux 17 W/m
06.11.2016 14:39 7,3 C 6,9 C 77 % 996,8 hPa 0,0 l/m 28,3 km/h (5 Bft) SW45 230 0 min 2,49 klux 17 W/m
06.11.2016 14:45 7,3 C 7,0 C 77 % 996,8 hPa 0,0 l/m 29,7 km/h (5 Bft) SW45 230 0 min 2,49 klux 17 W/m
06.11.2016 14:50 7,2 C 6,9 C 76 % 997,8 hPa 0,0 l/m 31,2 km/h (5 Bft) SW67.5 220 0 min 2,27 klux 16 W/m
06.11.2016 14:55 7,2 C 6,9 C 77 % 997,8 hPa 0,0 l/m 25,0 km/h (4 Bft) SW45 225 0 min 2,27 klux 16 W/m
06.11.2016 14:59 7,2 C 6,9 C 78 % 996,8 hPa 0,0 l/m 25,5 km/h (4 Bft) SW22.5 235 0 min 2,27 klux 16 W/m
06.11.2016 15:05 7,2 C 6,8 C 77 % 996,8 hPa 0,0 l/m 26,1 km/h (4 Bft) W-SW45 240 0 min 2,27 klux 16 W/m
06.11.2016 15:10 7,2 C 6,8 C 77 % 996,8 hPa 0,0 l/m 27,0 km/h (5 Bft) SW67.5 230 0 min 2,27 klux 16 W/m
06.11.2016 15:15 7,2 C 6,9 C 77 % 996,8 hPa 0,0 l/m 25,9 km/h (4 Bft) SW67.5 225 0 min 1,34 klux 9 W/m
06.11.2016 15:19 7,2 C 6,9 C 77 % 997,8 hPa 0,0 l/m 25,7 km/h (4 Bft) SW67.5 230 0 min 1,35 klux 9 W/m
06.11.2016 15:25 7,1 C 6,8 C 78 % 997,8 hPa 0,0 l/m 38,8 km/h (6 Bft) SW67.5 235 0 min 1,35 klux 9 W/m
06.11.2016 15:30 6,8 C 6,8 C 80 % 997,8 hPa 0,0 l/m 28,4 km/h (5 Bft) SW67.5 225 0 min 1,35 klux 9 W/m
06.11.2016 15:35 6,7 C 6,8 C 82 % 997,8 hPa 0,0 l/m 32,5 km/h (5 Bft) W-SW22.5 240 0 min 1,35 klux 9 W/m
06.11.2016 15:40 6,5 C 6,8 C 82 % 997,8 hPa 0,0 l/m 30,2 km/h (5 Bft) SW45 230 0 min 1,40 klux 10 W/m
06.11.2016 15:44 6,5 C 6,7 C 82 % 997,8 hPa 0,0 l/m 27,7 km/h (5 Bft) SW22.5 225 0 min 1,40 klux 10 W/m
06.11.2016 15:49 6,4 C 6,7 C 83 % 997,8 hPa 0,0 l/m 25,6 km/h (4 Bft) SW45 230 0 min 1,40 klux 10 W/m
06.11.2016 15:55 6,2 C 6,7 C 84 % 997,8 hPa 0,0 l/m 27,8 km/h (5 Bft) SW45 230 0 min 1,23 klux 8 W/m
06.11.2016 16:00 6,2 C 6,7 C 84 % 997,8 hPa 0,0 l/m 26,6 km/h (4 Bft) SW45 235 0 min 959 lux 7 W/m
06.11.2016 16:04 6,1 C 6,7 C 85 % 997,8 hPa 0,0 l/m 23,0 km/h (4 Bft) SW45 230 0 min 946 lux 6 W/m
06.11.2016 16:10 6,1 C 6,8 C 85 % 997,8 hPa 0,0 l/m 16,1 km/h (3 Bft) SW45 225 0 min 946 lux 6 W/m
06.11.2016 16:15 6,1 C 6,8 C 86 % 997,8 hPa 0,0 l/m 18,8 km/h (3 Bft) SW22.5 225 0 min 946 lux 6 W/m
06.11.2016 16:20 6,0 C 6,8 C 86 % 997,8 hPa 0,1 l/m 23,1 km/h (4 Bft) SW22.5 225 0 min 946 lux 6 W/m
06.11.2016 16:24 6,0 C 6,8 C 86 % 997,8 hPa 0,0 l/m 24,8 km/h (4 Bft) SW22.5 220 0 min 416 lux 3 W/m
06.11.2016 16:29 6,0 C 6,8 C 86 % 997,8 hPa 0,0 l/m 20,8 km/h (4 Bft) SW45 215 0 min 416 lux 3 W/m
06.11.2016 16:35 6,0 C 6,4 C 86 % 997,8 hPa 0,0 l/m 24,6 km/h (4 Bft) SW45 215 0 min 545 lux 4 W/m
06.11.2016 16:40 6,0 C 6,2 C 86 % 997,8 hPa 0,0 l/m 28,9 km/h (5 Bft) SW45 225 0 min 545 lux 4 W/m
06.11.2016 16:45 6,0 C 6,1 C 86 % 997,8 hPa 0,0 l/m 20,0 km/h (4 Bft) SW22.5 225 0 min 184 lux 1 W/m
06.11.2016 16:50 6,0 C 6,3 C 86 % 997,8 hPa 0,1 l/m 20,9 km/h (4 Bft) SW45 225 0 min 143 lux 1 W/m
06.11.2016 16:54 5,9 C 6,2 C 86 % 997,8 hPa 0,1 l/m 24,3 km/h (4 Bft) SW67.5 215 0 min 105 lux 0 W/m
06.11.2016 17:00 5,9 C 6,2 C 86 % 997,8 hPa 0,0 l/m 23,7 km/h (4 Bft) S-SW45 210 0 min 105 lux 0 W/m
06.11.2016 17:05 5,9 C 6,2 C 86 % 997,8 hPa 0,0 l/m 21,8 km/h (4 Bft) SW45 220 0 min 59 lux 0 W/m
06.11.2016 17:09 5,9 C 6,2 C 86 % 997,8 hPa 0,0 l/m 21,8 km/h (4 Bft) SW45 220 0 min 28 lux 0 W/m
06.11.2016 17:14 5,9 C 6,4 C 87 % 997,8 hPa 0,1 l/m 15,5 km/h (3 Bft) S-SW45 210 0 min 20 lux 0 W/m
06.11.2016 17:20 5,8 C 6,5 C 87 % 997,8 hPa 0,0 l/m 15,5 km/h (3 Bft) S-SW45 210 0 min 9 lux 0 W/m
06.11.2016 17:25 5,9 C 6,5 C 87 % 997,8 hPa 0,0 l/m 19,5 km/h (3 Bft) S-SW22.5 210 0 min 9 lux 0 W/m
06.11.2016 17:30 5,9 C 6,4 C 87 % 997,8 hPa 0,0 l/m 14,2 km/h (3 Bft) S-SW45 210 0 min 1 lux 0 W/m
06.11.2016 17:34 6,0 C 6,5 C 86 % 997,8 hPa 0,1 l/m 14,6 km/h (3 Bft) SW67.5 215 0 min 1 lux 0 W/m
06.11.2016 17:39 6,0 C 6,2 C 86 % 997,8 hPa 0,0 l/m 26,8 km/h (4 Bft) SW45 215 0 min 0 lux 0 W/m
06.11.2016 17:45 6,0 C 6,2 C 86 % 997,8 hPa 0,2 l/m 21,2 km/h (4 Bft) SW22.5 220 0 min 0 lux 0 W/m
06.11.2016 17:50 5,9 C 6,5 C 86 % 997,8 hPa 0,1 l/m 20,0 km/h (4 Bft) SW45 220 0 min 0 lux 0 W/m
06.11.2016 17:55 5,9 C 6,6 C 86 % 997,8 hPa 0,2 l/m 23,3 km/h (4 Bft) SW45 215 0 min 0 lux 0 W/m
06.11.2016 17:59 5,9 C 6,6 C 86 % 997,8 hPa 0,1 l/m 21,5 km/h (4 Bft) SW22.5 215 0 min 0 lux 0 W/m
06.11.2016 18:05 5,9 C 6,6 C 86 % 997,8 hPa 0,0 l/m 28,0 km/h (5 Bft) SW67.5 215 0 min 0 lux 0 W/m
06.11.2016 18:10 5,9 C 6,6 C 86 % 997,8 hPa 0,1 l/m 27,0 km/h (5 Bft) SW22.5 220 0 min 0 lux 0 W/m
06.11.2016 18:15 5,9 C 6,6 C 86 % 997,8 hPa 0,0 l/m 22,8 km/h (4 Bft) SW67.5 220 0 min 0 lux 0 W/m
06.11.2016 18:19 5,9 C 6,7 C 87 % 997,8 hPa 0,1 l/m 22,3 km/h (4 Bft) SW45 215 0 min 0 lux 0 W/m
06.11.2016 18:25 5,9 C 6,6 C 87 % 997,8 hPa 0,0 l/m 23,0 km/h (4 Bft) SW45 220 0 min 0 lux 0 W/m
06.11.2016 18:30 5,9 C 6,7 C 87 % 997,8 hPa 0,1 l/m 27,1 km/h (5 Bft) SW45 215 0 min 0 lux 0 W/m
06.11.2016 18:35 5,9 C 6,7 C 87 % 998,8 hPa 0,0 l/m 20,6 km/h (4 Bft) SW45 215 0 min 0 lux 0 W/m
06.11.2016 18:40 5,8 C 6,7 C 87 % 998,8 hPa 0,0 l/m 20,3 km/h (4 Bft) SW45 215 0 min 0 lux 0 W/m
06.11.2016 18:44 5,8 C 6,6 C 87 % 998,8 hPa 0,0 l/m 24,8 km/h (4 Bft) SW45 220 0 min 0 lux 0 W/m
06.11.2016 18:50 5,8 C 6,6 C 87 % 998,8 hPa 0,1 l/m 25,5 km/h (4 Bft) SW45 220 0 min 0 lux 0 W/m
06.11.2016 18:55 5,8 C 6,6 C 87 % 998,8 hPa 0,0 l/m 19,9 km/h (4 Bft) SW45 215 0 min 0 lux 0 W/m
06.11.2016 19:00 5,8 C 6,6 C 87 % 998,8 hPa 0,0 l/m 23,3 km/h (4 Bft) SW22.5 230 0 min 0 lux 0 W/m
06.11.2016 19:04 5,7 C 6,6 C 87 % 998,8 hPa 0,0 l/m 26,0 km/h (4 Bft) SW45 215 0 min 0 lux 0 W/m
06.11.2016 19:10 5,7 C 6,6 C 86 % 998,8 hPa 0,0 l/m 21,3 km/h (4 Bft) SW67.5 215 0 min 0 lux 0 W/m
06.11.2016 19:15 5,8 C 6,6 C 86 % 998,8 hPa 0,0 l/m 24,9 km/h (4 Bft) SW45 225 0 min 0 lux 0 W/m
06.11.2016 19:20 5,7 C 6,6 C 86 % 998,8 hPa 0,0 l/m 20,5 km/h (4 Bft) SW67.5 220 0 min 0 lux 0 W/m
06.11.2016 19:24 5,7 C 6,6 C 86 % 998,8 hPa 0,0 l/m 21,6 km/h (4 Bft) SW67.5 215 0 min 0 lux 0 W/m
06.11.2016 19:29 5,7 C 6,6 C 86 % 998,8 hPa 0,0 l/m 25,8 km/h (4 Bft) W-SW45 240 0 min 0 lux 0 W/m
06.11.2016 19:35 5,7 C 6,6 C 86 % 998,8 hPa 0,0 l/m 26,0 km/h (4 Bft) SW67.5 220 0 min 0 lux 0 W/m
06.11.2016 19:40 5,7 C 6,5 C 86 % 998,8 hPa 0,0 l/m 23,8 km/h (4 Bft) SW67.5 225 0 min 0 lux 0 W/m
06.11.2016 19:45 5,7 C 6,6 C 86 % 998,8 hPa 0,0 l/m 22,3 km/h (4 Bft) SW45 215 0 min 0 lux 0 W/m
06.11.2016 19:49 5,7 C 6,6 C 86 % 998,8 hPa 0,0 l/m 24,9 km/h (4 Bft) SW67.5 215 0 min 0 lux 0 W/m
06.11.2016 19:54 5,7 C 6,6 C 86 % 998,8 hPa 0,0 l/m 25,8 km/h (4 Bft) SW45 225 0 min 0 lux 0 W/m
06.11.2016 20:00 5,8 C 6,6 C 86 % 998,8 hPa 0,0 l/m 21,8 km/h (4 Bft) W-SW45 240 0 min 0 lux 0 W/m
06.11.2016 20:05 5,8 C 6,6 C 86 % 998,8 hPa 0,0 l/m 27,3 km/h (5 Bft) SW45 225 0 min 0 lux 0 W/m
06.11.2016 20:09 5,8 C 6,6 C 86 % 998,8 hPa 0,0 l/m 18,8 km/h (3 Bft) SW22.5 230 0 min 0 lux 0 W/m
06.11.2016 20:15 5,8 C 6,6 C 86 % 998,8 hPa 0,0 l/m 25,1 km/h (4 Bft) SW45 230 0 min 0 lux 0 W/m
06.11.2016 20:20 5,8 C 6,6 C 86 % 998,8 hPa 0,0 l/m 25,6 km/h (4 Bft) SW67.5 235 0 min 0 lux 0 W/m
06.11.2016 20:25 5,8 C 6,6 C 86 % 998,8 hPa 0,0 l/m 22,0 km/h (4 Bft) SW45 225 0 min 0 lux 0 W/m
06.11.2016 20:30 5,8 C 6,6 C 86 % 998,8 hPa 0,0 l/m 24,5 km/h (4 Bft) SW22.5 215 0 min 0 lux 0 W/m
06.11.2016 20:34 5,8 C 6,6 C 86 % 998,8 hPa 0,0 l/m 17,5 km/h (3 Bft) SW22.5 225 0 min 0 lux 0 W/m
06.11.2016 20:40 5,8 C 6,6 C 86 % 998,8 hPa 0,0 l/m 17,6 km/h (3 Bft) SW22.5 230 0 min 0 lux 0 W/m
06.11.2016 20:45 5,8 C 6,6 C 86 % 998,8 hPa 0,0 l/m 22,6 km/h (4 Bft) SW45 225 0 min 0 lux 0 W/m
06.11.2016 20:50 5,8 C 6,6 C 86 % 998,8 hPa 0,0 l/m 23,0 km/h (4 Bft) W-SW45 240 0 min 0 lux 0 W/m
06.11.2016 20:55 5,8 C 6,5 C 86 % 998,8 hPa 0,0 l/m 25,8 km/h (4 Bft) W-SW45 245 0 min 0 lux 0 W/m
06.11.2016 20:59 5,8 C 6,5 C 86 % 998,8 hPa 0,0 l/m 28,8 km/h (5 Bft) SW45 235 0 min 0 lux 0 W/m
06.11.2016 21:05 5,8 C 6,5 C 86 % 998,8 hPa 0,0 l/m 25,7 km/h (4 Bft) SW45 225 0 min 0 lux 0 W/m
06.11.2016 21:10 5,8 C 6,5 C 86 % 998,8 hPa 0,0 l/m 25,9 km/h (4 Bft) SW67.5 230 0 min 0 lux 0 W/m
06.11.2016 21:14 5,8 C 6,5 C 86 % 998,8 hPa 0,0 l/m 25,1 km/h (4 Bft) W-SW22.5 240 0 min 0 lux 0 W/m
06.11.2016 21:19 5,8 C 6,6 C 86 % 998,8 hPa 0,0 l/m 22,1 km/h (4 Bft) SW67.5 225 0 min 0 lux 0 W/m
06.11.2016 21:25 5,8 C 6,6 C 85 % 998,8 hPa 0,0 l/m 23,1 km/h (4 Bft) SW45 225 0 min 0 lux 0 W/m
06.11.2016 21:30 5,8 C 6,6 C 85 % 998,8 hPa 0,0 l/m 20,6 km/h (4 Bft) SW45 220 0 min 0 lux 0 W/m
06.11.2016 21:35 5,8 C 6,6 C 85 % 998,8 hPa 0,0 l/m 17,1 km/h (3 Bft) SW45 225 0 min 0 lux 0 W/m
06.11.2016 21:39 5,8 C 6,6 C 85 % 998,8 hPa 0,0 l/m 19,8 km/h (3 Bft) SW45 215 0 min 0 lux 0 W/m
06.11.2016 21:45 5,8 C 6,7 C 86 % 998,8 hPa 0,0 l/m 21,0 km/h (4 Bft) SW22.5 220 0 min 0 lux 0 W/m
06.11.2016 21:50 5,8 C 6,7 C 86 % 998,8 hPa 0,0 l/m 21,0 km/h (4 Bft) SW45 230 0 min 0 lux 0 W/m
06.11.2016 21:55 5,8 C 6,7 C 85 % 998,8 hPa 0,0 l/m 18,1 km/h (3 Bft) S-SW45 205 0 min 0 lux 0 W/m
06.11.2016 21:59 5,8 C 6,7 C 85 % 998,8 hPa 0,0 l/m 19,7 km/h (3 Bft) SW22.5 220 0 min 0 lux 0 W/m
06.11.2016 22:05 5,8 C 6,7 C 85 % 998,8 hPa 0,0 l/m 19,7 km/h (3 Bft) SW22.5 220 0 min 0 lux 0 W/m
06.11.2016 22:10 5,8 C 6,7 C 85 % 998,8 hPa 0,0 l/m 19,1 km/h (3 Bft) SW45 225 0 min 0 lux 0 W/m
06.11.2016 22:15 5,8 C 6,7 C 85 % 998,8 hPa 0,0 l/m 17,3 km/h (3 Bft) SW45 225 0 min 0 lux 0 W/m
06.11.2016 22:19 5,8 C 6,7 C 85 % 998,8 hPa 0,0 l/m 13,7 km/h (3 Bft) SW22.5 230 0 min 0 lux 0 W/m
06.11.2016 22:24 5,8 C 6,7 C 85 % 998,8 hPa 0,0 l/m 19,1 km/h (3 Bft) SW45 225 0 min 0 lux 0 W/m
06.11.2016 22:30 5,8 C 6,7 C 85 % 998,8 hPa 0,0 l/m 16,4 km/h (3 Bft) SW45 225 0 min 0 lux 0 W/m
06.11.2016 22:35 5,8 C 6,6 C 85 % 999,8 hPa 0,0 l/m 20,6 km/h (4 Bft) W-SW22.5 240 0 min 0 lux 0 W/m
06.11.2016 22:40 5,8 C 6,7 C 84 % 998,8 hPa 0,0 l/m 18,7 km/h (3 Bft) SW22.5 225 0 min 0 lux 0 W/m
06.11.2016 22:44 5,8 C 6,7 C 84 % 998,8 hPa 0,0 l/m 16,7 km/h (3 Bft) SW22.5 235 0 min 0 lux 0 W/m
06.11.2016 22:49 5,8 C 6,8 C 84 % 999,8 hPa 0,0 l/m 15,3 km/h (3 Bft) SW22.5 230 0 min 0 lux 0 W/m
06.11.2016 22:55 5,8 C 6,7 C 84 % 999,8 hPa 0,0 l/m 17,6 km/h (3 Bft) SW22.5 215 0 min 0 lux 0 W/m
06.11.2016 23:00 5,8 C 6,7 C 84 % 999,8 hPa 0,0 l/m 15,8 km/h (3 Bft) SW22.5 220 0 min 0 lux 0 W/m
06.11.2016 23:04 5,8 C 6,7 C 84 % 999,8 hPa 0,0 l/m 17,8 km/h (3 Bft) SW22.5 225 0 min 0 lux 0 W/m
06.11.2016 23:10 5,8 C 6,7 C 84 % 999,8 hPa 0,0 l/m 15,5 km/h (3 Bft) SW22.5 225 0 min 0 lux 0 W/m
06.11.2016 23:15 5,8 C 6,7 C 84 % 999,8 hPa 0,0 l/m 15,5 km/h (3 Bft) SW22.5 235 0 min 0 lux 0 W/m
06.11.2016 23:20 5,8 C 6,7 C 84 % 999,8 hPa 0,0 l/m 15,7 km/h (3 Bft) SW22.5 225 0 min 0 lux 0 W/m
06.11.2016 23:24 5,8 C 6,7 C 84 % 999,8 hPa 0,0 l/m 12,7 km/h (3 Bft) SW22.5 225 0 min 0 lux 0 W/m
06.11.2016 23:29 5,8 C 6,7 C 84 % 999,8 hPa 0,0 l/m 14,2 km/h (3 Bft) SW22.5 225 0 min 0 lux 0 W/m
06.11.2016 23:35 5,8 C 6,8 C 84 % 999,8 hPa 0,0 l/m 15,3 km/h (3 Bft) SW22.5 230 0 min 0 lux 0 W/m
06.11.2016 23:40 5,8 C 6,8 C 84 % 999,8 hPa 0,0 l/m 13,3 km/h (3 Bft) SW22.5 220 0 min 0 lux 0 W/m
06.11.2016 23:45 5,8 C 6,8 C 84 % 999,8 hPa 0,0 l/m 13,9 km/h (3 Bft) SW45 220 0 min 0 lux 0 W/m
06.11.2016 23:49 5,8 C 6,8 C 84 % 999,8 hPa 0,0 l/m 15,5 km/h (3 Bft) SW22.5 215 0 min 0 lux 0 W/m
06.11.2016 23:54 5,8 C 6,8 C 84 % 999,8 hPa 0,0 l/m 14,0 km/h (3 Bft) SW22.5 225 0 min 0 lux 0 W/m
_ Min-Zeit 05:30 07:25 14:50 14:25 - 23:24 - - - - -
Minimum _ 4,3 C 4,6 C 76 % 996,8 hPa - 12,7 km/h (3 Bft) - - - - -
_ Max-Zeit 12:44 14:45 02:10 22:35 17:45 11:00 - - 09:40 11:15 11:15
Maximum _ 7,4 C 7,0 C 87 % 999,8 hPa 0,2 l/m 40,7 km/h
SW (6 Bft)
- - 6 min 47,7 klux 326 W/m
Durchschnitt _ 5,8 C 6,0 C 84 % 998,1 hPa #1,9 l/m 24,4 km/h (4 Bft) SW - #1:35 h 3,97 klux 76 W/m